Temperature
6 7 7 7 7 8 8 8 8 9 9 9 9 10 10 10 10 10 10 10 9 9 9 9 9 9 9 10 10 10 10 10 10 10 10 11 11 11 11 11 11 11 11 11
7 7 7 7 7 7 7 7 8 8 9 8 9 9 10 10 10 9 9 9 8 8 8 8 9 9 9 9 10 10 10 10 10 10 10 10 10 10 11 11 11 11 11 11
6 6 6 6 6 6 7 7 7 7 8 8 8 9 10 9 9 8 8 8 8 8 7 8 8 8 9 9 9 9 9 9 9 10 10 10 10 10 10 10 10 11 11 10
6 6 6 6 6 6 6 7 7 7 7 8 8 8 10 9 9 9 8 8 8 7 7 7 7 8 8 9 9 9 9 9 9 9 9 10 10 10 10 10 10 10 10 10
5 5 5 5 5 5 6 6 6 6 6 7 8 7 10 9 9 9 8 7 7 7 7 6 7 8 8 8 8 8 9 9 8 9 9 9 9 9 9 9 10 10 10 10
5 5 5 5 5 5 5 6 6 6 6 6 7 8 9 9 9 9 9 8 7 7 6 6 7 7 7 7 8 8 8 8 8 8 8 8 9 9 9 9 9 9 9 9
5 5 5 5 5 5 5 6 6 6 7 7 7 7 8 9 8 8 8 8 7 7 6 6 6 7 7 7 7 7 7 8 8 8 8 8 8 9 9 9 9 9 9 9
5 5 4 4 5 5 5 5 6 6 7 8 7 7 9 8 7 7 7 7 6 6 6 6 6 6 6 6 7 7 7 7 7 7 8 8 8 8 8 8 8 8 9 9
4 5 4 4 4 4 5 5 5 5 5 6 7 8 8 7 7 6 6 6 6 5 5 5 5 6 6 6 6 6 7 7 7 7 7 7 7 8 8 8 8 8 8 8
3 3 4 4 4 4 5 5 4 5 6 7 8 8 8 7 6 6 6 6 5 5 4 5 5 5 5 6 6 6 6 6 7 7 7 7 7 7 7 7 7 8 8 8
2 3 4 4 4 4 4 4 4 5 5 6 7 8 7 5 5 5 5 4 4 4 4 4 4 4 5 5 5 5 6 6 6 6 6 6 6 7 7 7 7 7 7 7
2 3 3 4 4 3 4 4 4 4 4 5 6 7 5 5 4 4 4 3 3 3 3 3 4 4 4 4 5 5 5 5 5 5 5 6 6 6 6 6 6 7 7 7
1 2 3 4 4 3 3 3 3 3 4 5 5 6 5 5 4 4 3 3 3 3 3 3 3 3 3 4 4 4 4 5 5 5 5 5 5 6 6 6 6 6 6 6
1 1 2 4 4 3 2 2 2 3 4 4 5 5 5 5 4 3 2 2 2 2 2 2 2 3 3 3 3 3 4 4 4 4 4 5 5 5 5 5 5 6 6 6
1 1 1 2 2 2 2 2 2 2 3 4 5 5 5 4 3 3 2 1 2 2 1 2 2 2 2 2 3 3 3 3 3 4 4 4 4 4 4 4 5 5 5 5
-1 0 0 1 2 1 1 2 2 2 2 3 3 3 3 3 2 2 1 1 1 1 1 1 1 1 1 2 2 2 3 3 3 3 3 3 3 4 4 4 4 4 4 4
-1 -1 0 2 1 1 2 1 1 1 1 2 2 3 2 2 2 1 0 -0 -0 -0 0 0 1 1 1 1 2 2 2 2 2 2 3 3 3 3 3 3 4 4 4 4
-2 -2 -1 1 1 1 3 1 1 1 1 1 1 1 1 1 0 -0 -0 -1 -1 -1 -0 -0 0 0 1 1 1 1 2 2 2 2 2 2 2 2 3 3 3 3 3 3
-2 -2 -0 0 1 2 2 0 -0 -1 0 0 0 0 0 -0 -0 0 -1 -1 -1 -1 -1 -0 -0 0 1 1 1 1 1 1 2 2 2 2 2 2 2 2 3 3 3 3
-3 -2 -1 -0 1 2 2 -0 -1 -1 1 -0 -1 -1 -1 -1 1 1 -1 -2 -2 -1 -1 -1 -0 -0 0 0 0 1 1 1 1 1 1 2 2 2 2 2 2 2 2 2
-3 -2 -2 -1 0 1 0 -2 -1 0 1 -1 -2 -2 -2 -1 -1 -2 -3 -2 -2 -2 -1 -1 -1 -1 -0 -0 -0 0 0 0 1 1 1 1 1 2 2 2 2 2 2 2
-2 -2 -2 -1 -1 0 -1 -2 -1 -1 -2 -2 -3 -3 -3 -3 -3 -3 -3 -3 -2 -2 -2 -2 -1 -1 -1 -1 -1 -0 -0 -0 0 0 1 1 1 1 1 1 1 1 1 1
-3 -2 -1 -2 -0 -1 -3 -3 -3 -3 -3 -3 -3 -3 -3 -4 -4 -3 -3 -3 -3 -2 -2 -2 -2 -1 -1 -1 -1 -1 -1 -1 -0 -0 0 0 0 1 1 1 1 1 1 1
-3 -4 -3 -3 -2 -2 -3 -3 -3 -3 -4 -4 -4 -4 -4 -4 -4 -4 -4 -3 -3 -3 -3 -2 -2 -2 -2 -2 -2 -2 -1 -1 -1 -1 -0 -0 -0 -0 0 0 0 0 0 1
-2 -4 -4 -3 -2 -3 -3 -3 -3 -4 -4 -4 -4 -4 -4 -4 -4 -4 -4 -4 -3 -3 -3 -3 -3 -3 -2 -2 -2 -2 -2 -2 -1 -1 -1 -1 -1 -1 -0 -0 -0 -0 0 0
-3 -4 -3 -1 -2 -3 -3 -3 -4 -4 -4 -4 -4 -4 -4 -4 -4 -4 -4 -4 -4 -3 -3 -3 -3 -3 -3 -3 -2 -2 -2 -2 -2 -2 -2 -1 -1 -1 -1 -1 -1 -1 -1 -0
Wind_Speed
1 0 2 4 6 7 7 9 11 10 7 8 13 14 12 10 9 9 9 8 7 6 5 4 3 3 3 4 5 5 5 4 4 4 5 4 4 4 4 4 6 7 7 7
1 2 4 5 5 6 8 9 10 9 7 7 11 13 10 8 8 7 7 7 7 5 4 3 3 3 3 4 4 4 5 5 5 4 5 4 4 3 3 3 5 6 7 7
2 2 3 4 4 5 7 9 9 8 9 7 8 10 9 6 6 6 6 6 6 5 4 4 3 3 4 3 3 4 5 5 5 4 3 4 3 2 3 4 4 5 7 7
2 3 3 4 4 5 7 6 7 7 6 4 5 6 7 7 7 7 7 6 6 5 4 3 3 3 3 3 3 4 5 5 4 5 5 7 5 5 4 4 4 5 7 7
2 4 4 4 5 5 6 6 7 7 6 6 6 6 6 5 8 8 7 6 6 5 4 3 3 3 3 2 3 3 4 4 4 4 5 6 6 4 4 4 5 5 5 6
4 3 3 4 4 4 5 5 4 4 4 5 6 6 6 5 8 8 7 6 6 5 4 2 2 1 1 1 2 2 3 3 3 4 5 6 7 6 5 6 6 5 4 4
4 1 2 2 3 2 3 2 2 2 3 4 3 6 6 3 5 6 6 5 5 4 4 2 2 2 2 2 2 2 3 3 3 4 5 6 6 7 7 7 6 6 4 4
4 3 2 2 3 3 3 3 2 3 3 4 3 6 3 2 3 3 4 3 3 2 3 3 3 3 2 2 2 3 3 3 3 4 5 5 5 5 5 6 6 6 5 4
3 4 3 3 3 2 2 2 2 2 2 3 4 4 4 2 4 4 3 2 2 2 2 2 2 2 2 2 3 3 3 3 3 4 4 4 5 5 5 5 5 5 4 4
3 5 5 3 2 1 3 1 2 2 2 3 4 5 3 4 6 6 6 5 4 3 2 2 2 1 1 1 1 2 2 3 3 3 3 3 4 4 4 5 5 5 5 5
3 3 4 2 2 2 2 2 2 2 2 3 3 2 2 3 4 6 6 6 5 4 3 1 1 1 1 0 0 0 1 1 1 2 3 3 3 3 4 4 5 5 5 5
2 3 4 4 2 2 2 2 3 3 3 3 4 3 3 3 4 5 6 6 5 4 3 2 0 0 1 1 1 0 0 1 1 2 2 2 2 3 3 4 4 5 5 5
2 2 3 2 1 0 2 2 2 2 2 4 5 4 2 5 6 7 7 7 5 4 3 2 2 1 1 1 1 1 0 1 1 1 1 2 2 2 3 3 3 4 4 5
2 2 4 6 5 3 4 5 4 4 4 6 8 9 9 8 9 9 9 8 5 4 4 3 2 2 1 2 2 1 1 1 0 1 1 1 2 2 2 2 3 3 4 4
1 3 5 9 9 7 7 8 6 7 8 8 9 10 11 10 10 9 8 7 6 5 4 4 3 3 2 2 2 2 2 1 1 1 1 1 1 1 1 1 2 3 3 4
1 3 4 5 5 5 7 8 7 7 9 10 11 11 10 9 7 7 7 7 7 6 5 4 4 3 3 3 2 2 2 1 1 1 1 0 0 1 1 1 2 2 3 3
2 2 2 4 4 4 5 6 6 5 5 6 8 9 9 8 7 7 7 7 7 7 6 5 4 4 3 3 3 2 2 2 1 1 0 0 0 1 1 1 2 3 3 3
3 2 2 3 3 4 1 1 2 5 5 5 7 9 8 8 9 7 6 6 6 7 6 5 4 4 4 3 3 3 2 1 1 0 0 0 0 1 1 2 2 2 2 3
4 4 2 2 3 6 3 2 2 4 5 4 7 8 8 8 6 4 5 6 6 6 6 5 4 4 3 3 3 2 2 1 1 1 1 1 1 1 1 2 2 2 2 3
1 2 3 3 4 4 2 2 2 3 4 1 4 7 7 6 4 4 7 7 7 6 4 4 4 3 3 3 3 2 2 1 1 2 2 2 1 1 2 2 2 1 2 2
1 2 4 5 5 5 3 3 1 3 3 4 5 6 6 5 6 7 7 7 6 5 4 4 3 3 3 3 2 2 2 2 3 2 2 2 1 1 1 1 1 1 1 2
4 3 4 4 5 5 0 2 3 4 5 5 6 6 6 6 7 7 6 6 5 5 4 4 3 3 3 3 2 2 3 3 3 2 2 2 2 1 0 0 0 1 1 2
5 5 3 6 5 3 3 3 4 4 6 6 7 7 6 6 6 6 6 5 5 5 4 3 3 3 3 3 3 3 3 3 3 3 2 2 2 1 0 0 1 1 1 1
4 3 4 6 8 7 7 7 7 6 7 7 6 6 5 5 6 6 5 5 5 4 3 3 3 3 3 4 3 3 3 3 2 2 2 2 1 1 1 0 0 1 1 1
5 4 5 7 8 7 7 7 7 7 7 6 6 5 5 5 6 5 5 5 5 4 3 3 2 3 4 4 3 3 3 2 2 2 2 2 2 1 1 1 1 1 1 2
6 7 6 7 5 5 7 6 6 7 7 6 6 6 5 5 5 5 4 4 4 4 3 3 3 3 3 3 3 3 3 2 1 2 2 2 1 1 1 1 1 2 1 1
Wind_Direction
35 222 260 263 256 260 257 264 268 274 284 266 259 264 266 258 247 243 239 237 234 234 238 221 214 200 174 172 169 166 167 171 165 169 170 173 178 170 170 172 175 177 173 171
193 268 279 282 275 260 257 267 277 282 285 273 266 266 266 257 243 240 236 232 233 234 233 225 210 194 186 177 164 172 174 182 182 183 184 186 177 178 171 167 172 178 177 174
269 298 306 279 275 274 265 261 270 281 298 269 271 262 248 244 239 241 244 241 236 231 231 225 208 198 194 187 178 189 186 188 187 173 169 154 149 157 167 175 178 181 180 177
310 307 297 290 279 277 270 270 270 268 275 272 259 265 252 244 239 241 243 244 242 235 223 217 207 200 207 201 187 195 187 189 187 173 179 176 185 191 196 188 186 180 182 180
307 318 308 288 291 274 273 283 268 258 261 272 252 252 265 229 239 241 240 247 242 234 215 220 211 193 201 194 186 197 184 185 188 184 189 194 194 198 190 180 181 180 179 180
295 307 313 296 298 274 283 271 262 240 241 249 243 242 265 228 236 242 240 246 240 232 219 222 212 159 165 163 174 186 185 186 192 195 198 205 197 191 185 188 184 183 179 180
330 321 329 301 302 277 300 275 264 232 223 250 230 241 258 269 259 251 250 248 239 229 217 217 203 184 181 169 171 185 187 189 198 204 208 214 207 198 195 193 191 188 185 191
330 317 337 321 291 280 266 253 264 271 264 283 239 245 265 334 315 287 277 260 239 237 222 217 209 197 193 184 180 182 190 193 197 208 220 222 213 206 205 201 196 196 196 198
318 301 324 316 308 274 235 235 288 284 291 265 243 262 279 333 346 342 323 310 293 268 252 235 211 199 194 191 193 193 191 195 203 211 220 224 216 215 210 202 201 197 194 190
287 285 302 313 274 285 291 263 204 229 264 262 256 262 275 337 337 335 331 323 323 317 306 258 220 208 208 217 208 193 192 199 204 211 217 225 223 221 214 199 197 197 191 185
285 271 293 291 250 272 211 200 234 242 268 271 271 272 6 316 322 321 326 326 322 320 310 284 245 220 207 218 245 192 190 206 217 220 220 222 220 215 207 201 199 195 189 185
313 279 278 275 303 316 262 248 223 238 243 254 276 296 37 351 343 336 334 336 330 330 328 328 347 82 61 27 4 306 201 207 230 233 222 218 211 202 201 201 197 190 186 186
309 277 298 274 188 117 264 280 255 243 251 248 258 271 14 345 345 350 349 347 342 353 356 357 14 30 13 357 341 319 267 218 235 229 219 209 200 197 197 197 189 184 182 180
286 242 253 276 304 305 286 279 259 232 240 250 252 275 301 325 331 338 344 344 344 357 3 1 356 350 343 339 332 324 311 310 253 220 212 211 209 213 201 190 183 182 181 179
277 259 264 276 284 284 281 275 258 238 245 251 269 279 296 315 320 324 331 337 343 348 353 353 347 340 335 336 334 328 331 333 294 241 229 233 219 224 199 177 176 177 181 182
311 268 281 281 278 280 280 278 263 253 253 257 270 279 300 314 318 325 332 336 334 336 336 339 339 338 331 327 320 321 325 318 288 271 283 274 194 205 197 177 168 166 174 179
235 238 274 279 308 292 275 271 245 235 246 257 265 285 312 311 310 314 323 328 326 326 329 329 327 322 314 316 319 314 308 306 277 265 266 162 203 223 220 185 168 172 172 172
214 218 249 285 297 248 279 38 254 237 261 265 277 296 306 307 309 310 319 322 322 325 322 322 325 324 324 326 331 328 318 309 296 289 313 27 243 246 230 199 192 183 175 175
214 207 232 250 266 272 281 280 263 249 269 277 283 296 306 314 303 301 346 333 320 319 314 315 321 324 330 337 334 326 321 332 331 313 305 299 270 246 235 216 218 203 185 181
136 211 232 235 255 260 312 342 312 240 263 310 295 301 312 318 297 318 348 336 330 330 327 325 331 337 343 342 336 335 336 339 324 311 297 294 279 248 236 230 224 226 198 188
179 207 227 238 249 268 315 327 202 225 308 335 302 300 301 287 291 311 320 323 326 331 335 336 338 343 343 342 339 345 352 343 331 326 315 311 300 277 253 242 225 203 180 173
203 203 211 217 229 256 33 142 209 283 324 311 303 301 295 295 301 306 314 321 327 333 337 341 342 343 345 345 343 343 343 337 334 336 336 334 330 326 292 239 230 176 163 169
219 219 225 217 238 302 194 233 279 305 300 302 300 298 292 292 297 305 314 319 321 324 327 333 335 334 342 346 344 336 330 335 341 349 350 344 341 342 334 208 204 181 168 178
229 225 238 256 262 272 264 270 283 287 287 294 295 292 288 286 290 297 304 309 313 316 317 322 326 329 335 341 340 335 332 335 344 346 347 347 345 348 356 318 231 212 208 203
245 203 232 256 276 289 268 268 280 286 291 295 297 291 285 283 285 288 295 303 305 305 307 310 311 317 323 331 336 338 336 343 349 346 345 344 345 342 354 356 329 255 249 249
216 216 226 252 261 260 281 288 278 279 285 289 293 296 293 282 280 286 291 296 297 297 303 305 308 311 315 323 330 333 334 334 339 341 339 337 339 341 343 0 13 19 334 318
Height
1492 1492 1489 1489 1490 1488 1487 1486 1482 1480 1480 1481 1476 1473 1472 1473 1473 1473 1473 1473 1474 1475 1476 1477 1478 1479 1480 1482 1483 1484 1486 1487 1489 1491 1493 1496 1498 1500 1502 1503 1505 1507 1509 1510
1491 1491 1491 1491 1490 1489 1486 1485 1481 1479 1479 1479 1474 1471 1469 1470 1470 1471 1471 1471 1472 1472 1473 1473 1475 1476 1478 1479 1479 1481 1483 1484 1486 1489 1491 1493 1495 1497 1499 1500 1502 1504 1506 1508
1491 1492 1492 1491 1489 1488 1485 1483 1482 1481 1479 1476 1475 1467 1465 1467 1469 1469 1469 1469 1469 1470 1470 1471 1472 1473 1474 1476 1477 1479 1480 1481 1483 1486 1488 1490 1492 1494 1496 1497 1499 1501 1503 1505
1491 1492 1491 1489 1488 1488 1484 1483 1483 1481 1479 1475 1475 1467 1460 1462 1464 1466 1466 1467 1467 1467 1468 1469 1470 1470 1471 1473 1475 1477 1478 1479 1481 1483 1484 1486 1488 1490 1492 1495 1497 1499 1501 1502
1492 1492 1491 1489 1489 1489 1485 1485 1483 1481 1479 1478 1472 1470 1457 1460 1461 1462 1463 1464 1464 1465 1466 1467 1467 1468 1469 1471 1472 1474 1475 1477 1479 1480 1482 1484 1486 1488 1490 1492 1494 1495 1497 1499
1494 1494 1493 1491 1490 1490 1487 1484 1481 1480 1478 1476 1469 1467 1456 1456 1458 1458 1460 1462 1463 1463 1464 1465 1466 1467 1468 1469 1470 1472 1472 1474 1476 1478 1480 1482 1484 1485 1486 1488 1490 1491 1493 1495
1492 1492 1493 1492 1489 1488 1487 1483 1478 1474 1471 1465 1467 1466 1458 1457 1459 1459 1459 1460 1461 1462 1463 1464 1464 1465 1466 1467 1468 1470 1470 1471 1474 1476 1477 1479 1481 1482 1484 1485 1487 1489 1490 1492
1492 1488 1492 1491 1490 1488 1487 1485 1480 1474 1465 1460 1465 1462 1457 1460 1460 1460 1460 1460 1461 1461 1462 1462 1463 1464 1465 1465 1466 1467 1468 1469 1471 1473 1475 1476 1478 1479 1481 1483 1484 1486 1487 1489
1496 1491 1492 1492 1491 1490 1487 1484 1485 1481 1476 1473 1461 1459 1457 1460 1460 1460 1460 1460 1460 1461 1461 1461 1462 1463 1463 1464 1465 1465 1466 1467 1469 1470 1472 1473 1475 1476 1478 1480 1481 1483 1484 1486
1503 1498 1492 1492 1491 1491 1489 1486 1486 1481 1474 1464 1458 1456 1455 1459 1460 1460 1461 1460 1460 1459 1460 1460 1460 1461 1462 1462 1463 1464 1464 1465 1466 1468 1469 1470 1472 1473 1475 1477 1478 1480 1481 1482
1504 1500 1493 1491 1489 1487 1489 1488 1486 1481 1478 1469 1459 1457 1462 1464 1464 1463 1462 1460 1459 1458 1458 1458 1458 1459 1460 1461 1461 1462 1462 1463 1464 1465 1467 1468 1469 1470 1472 1473 1475 1476 1478 1479
1504 1500 1492 1489 1490 1491 1488 1486 1485 1482 1480 1476 1467 1464 1466 1466 1465 1464 1462 1461 1459 1458 1458 1457 1458 1458 1459 1459 1460 1460 1460 1461 1462 1463 1464 1465 1467 1468 1469 1470 1472 1473 1475 1477
1506 1503 1492 1483 1489 1492 1490 1488 1487 1486 1482 1476 1470 1465 1467 1466 1465 1464 1463 1461 1459 1458 1458 1457 1457 1458 1458 1458 1459 1459 1459 1460 1461 1461 1462 1463 1464 1465 1466 1468 1469 1471 1472 1474
1506 1503 1497 1487 1483 1489 1489 1488 1487 1486 1480 1473 1469 1464 1464 1465 1465 1465 1464 1462 1460 1459 1458 1458 1457 1457 1457 1457 1457 1457 1457 1458 1459 1460 1460 1461 1462 1463 1464 1465 1467 1468 1470 1471
1506 1501 1499 1494 1492 1491 1489 1487 1486 1485 1479 1475 1467 1467 1465 1467 1468 1467 1465 1463 1461 1460 1459 1458 1457 1457 1456 1456 1456 1456 1455 1456 1457 1458 1458 1458 1460 1461 1462 1463 1464 1466 1467 1469
1506 1503 1500 1494 1490 1490 1488 1485 1483 1483 1481 1477 1472 1469 1469 1470 1469 1467 1465 1464 1461 1460 1459 1458 1457 1456 1456 1455 1455 1455 1454 1454 1455 1455 1456 1457 1458 1458 1459 1461 1462 1463 1465 1466
1505 1505 1499 1487 1490 1488 1482 1481 1481 1481 1480 1478 1473 1472 1471 1470 1468 1468 1466 1464 1462 1460 1459 1458 1457 1456 1455 1455 1454 1453 1453 1453 1454 1454 1454 1455 1456 1457 1458 1458 1459 1461 1462 1464
1506 1504 1500 1492 1491 1484 1478 1482 1481 1480 1479 1479 1477 1474 1473 1471 1469 1467 1466 1464 1462 1460 1458 1457 1456 1455 1454 1454 1453 1453 1453 1453 1453 1453 1453 1454 1454 1455 1456 1457 1458 1459 1460 1461
1504 1503 1498 1493 1485 1476 1478 1481 1482 1482 1477 1477 1476 1474 1472 1470 1467 1465 1464 1462 1461 1459 1457 1456 1455 1454 1453 1453 1452 1452 1452 1452 1452 1452 1452 1453 1453 1453 1454 1455 1456 1457 1458 1459
1504 1503 1499 1494 1485 1476 1476 1481 1482 1483 1475 1475 1475 1473 1472 1470 1465 1463 1463 1461 1459 1458 1456 1455 1454 1453 1453 1452 1452 1451 1450 1450 1450 1451 1451 1451 1452 1452 1453 1453 1454 1454 1455 1456
1503 1502 1499 1493 1486 1477 1481 1482 1481 1479 1473 1475 1474 1473 1471 1470 1468 1466 1463 1461 1459 1457 1456 1455 1453 1453 1452 1451 1450 1450 1449 1449 1449 1449 1450 1450 1450 1451 1452 1452 1452 1453 1453 1454
1496 1495 1496 1492 1487 1481 1482 1481 1481 1477 1476 1475 1473 1472 1470 1468 1465 1463 1462 1460 1458 1456 1455 1454 1453 1452 1451 1450 1449 1448 1448 1448 1448 1448 1448 1448 1449 1449 1450 1450 1451 1451 1452 1452
1494 1492 1488 1488 1482 1480 1480 1479 1478 1477 1475 1473 1472 1470 1468 1466 1464 1462 1460 1458 1457 1455 1454 1453 1452 1451 1450 1449 1449 1448 1447 1447 1447 1447 1447 1447 1447 1448 1448 1448 1449 1449 1450 1450
1490 1492 1490 1486 1478 1478 1478 1476 1475 1474 1473 1471 1469 1467 1466 1464 1462 1460 1458 1457 1455 1454 1453 1452 1451 1450 1449 1449 1448 1447 1447 1446 1446 1446 1446 1446 1446 1446 1446 1447 1447 1447 1448 1448
1485 1487 1485 1481 1477 1475 1473 1473 1472 1471 1469 1468 1466 1465 1463 1461 1460 1459 1457 1455 1454 1453 1452 1451 1450 1449 1448 1447 1447 1446 1446 1445 1445 1445 1445 1445 1445 1445 1445 1445 1445 1446 1446 1446
1480 1480 1479 1473 1473 1473 1470 1469 1469 1468 1466 1465 1463 1462 1460 1459 1458 1456 1455 1454 1452 1451 1450 1449 1448 1447 1447 1446 1445 1445 1445 1445 1444 1444 1444 1444 1444 1444 1444 1443 1443 1444 1444 1445